When you browse on this site, cookies collect data to enhance your experience and personalize the content and advertising you see.
Visit our Privacy Policy to learn more. By continuing to use the site, you agree to this use of cookies and data.
  • In United Kingdom
  • List of Countries
  • For 7 days
  • Water Temperature
  • Weather Map
  • Weather Widgets
  • user-avatar
    Login

    Hourly Weather Thimphu

    Today, 20 November, Wednesday

    Time Temperature Precipitation Wind Pressure Humidity
    00:00 +4°C° 0 mm 1 mps 523 mmHg 94%
    01:00 +3°C° 0 mm 1 mps 522 mmHg 93%
    02:00 +3°C° 0 mm 1 mps 522 mmHg 92%
    03:00 +3°C° 0 mm 1 mps 522 mmHg 91%
    04:00 +3°C° 0 mm 1 mps 522 mmHg 90%
    05:00 +2°C° 0 mm 1 mps 522 mmHg 88%
    06:00 +2°C° 0 mm 1 mps 521 mmHg 87%
    07:00 +4°C° 0 mm 1 mps 523 mmHg 81%
    08:00 +7°C° 0 mm 1 mps 525 mmHg 74%
    09:00 +9°C° 0 mm 1 mps 527 mmHg 68%
    10:00 +10°C° 0 mm 1 mps 527 mmHg 65%
    11:00 +10°C° 0 mm 2 mps 527 mmHg 61%
    12:00 +12°C° 0 mm 2 mps 527 mmHg 57%
    13:00 +10°C° 0.1 mm 2 mps 526 mmHg 64%
    14:00 +10°C° 0.1 mm 2 mps 525 mmHg 70%
    15:00 +9°C° 0.1 mm 2 mps 524 mmHg 77%
    16:00 +7°C° 0.2 mm 2 mps 524 mmHg 84%
    17:00 +7°C° 0.2 mm 1 mps 523 mmHg 90%
    18:00 +4°C° 0.2 mm 0 mps 523 mmHg 97%
    19:00 +4°C° 0.1 mm 0 mps 523 mmHg 96%
    20:00 +4°C° 0.1 mm 0 mps 523 mmHg 95%
    21:00 +3°C° 0.1 mm 0 mps 524 mmHg 95%
    22:00 +3°C° 0 mm 0 mps 523 mmHg 94%
    23:00 +3°C° 0 mm 0 mps 523 mmHg 94%

    Tomorrow, 21 November, Thursday

    Time Temperature Precipitation Wind Pressure Humidity
    00:00 +2°C° 0 mm 0 mps 523 mmHg 93%
    01:00 +2°C° 0 mm 0 mps 522 mmHg 92%
    02:00 +3°C° 0 mm 1 mps 522 mmHg 90%
    03:00 +3°C° 0 mm 1 mps 522 mmHg 88%
    04:00 +3°C° 0 mm 1 mps 522 mmHg 87%
    05:00 +2°C° 0 mm 1 mps 522 mmHg 85%
    06:00 +2°C° 0 mm 1 mps 521 mmHg 84%
    07:00 +4°C° 0 mm 1 mps 523 mmHg 79%
    08:00 +7°C° 0 mm 1 mps 525 mmHg 74%
    09:00 +9°C° 0 mm 1 mps 527 mmHg 68%
    10:00 +10°C° 0 mm 1 mps 527 mmHg 65%
    11:00 +10°C° 0 mm 2 mps 527 mmHg 61%
    12:00 +12°C° 0 mm 2 mps 527 mmHg 57%
    13:00 +10°C° 0.1 mm 2 mps 527 mmHg 63%
    14:00 +9°C° 0.1 mm 2 mps 526 mmHg 69%
    15:00 +8°C° 0.1 mm 2 mps 525 mmHg 75%
    16:00 +8°C° 0.1 mm 1 mps 524 mmHg 81%
    17:00 +7°C° 0.1 mm 1 mps 523 mmHg 88%
    18:00 +4°C° 0.1 mm 0 mps 523 mmHg 94%
    19:00 +4°C° 0 mm 0 mps 523 mmHg 93%
    20:00 +3°C° 0 mm 0 mps 523 mmHg 92%
    21:00 +3°C° 0 mm 0 mps 523 mmHg 91%
    22:00 +3°C° 0 mm 0 mps 523 mmHg 90%
    23:00 +3°C° 0 mm 0 mps 523 mmHg 88%

    Day after tomorrow, 22 November, Friday

    Time Temperature Precipitation Wind Pressure Humidity
    00:00 +3°C° 0 mm 1 mps 523 mmHg 87%
    01:00 +3°C° 0 mm 1 mps 522 mmHg 85%
    02:00 +3°C° 0 mm 1 mps 522 mmHg 84%
    03:00 +2°C° 0 mm 1 mps 522 mmHg 82%
    04:00 +2°C° 0 mm 1 mps 521 mmHg 81%
    05:00 +2°C° 0 mm 1 mps 521 mmHg 80%
    06:00 +2°C° 0 mm 1 mps 521 mmHg 78%
    07:00 +4°C° 0 mm 1 mps 523 mmHg 72%
    08:00 +7°C° 0 mm 1 mps 525 mmHg 65%
    09:00 +10°C° 0 mm 1 mps 527 mmHg 59%
    10:00 +11°C° 0 mm 1 mps 527 mmHg 56%
    11:00 +12°C° 0 mm 2 mps 528 mmHg 53%
    12:00 +13°C° 0 mm 2 mps 528 mmHg 50%
    13:00 +13°C° 0 mm 2 mps 527 mmHg 56%
    14:00 +12°C° 0 mm 2 mps 526 mmHg 62%
    15:00 +10°C° 0 mm 2 mps 525 mmHg 68%
    16:00 +8°C° 0 mm 2 mps 525 mmHg 77%
    17:00 +8°C° 0 mm 1 mps 524 mmHg 86%
    18:00 +5°C° 0 mm 0 mps 523 mmHg 96%
    19:00 +5°C° 0 mm 0 mps 523 mmHg 95%
    20:00 +5°C° 0 mm 0 mps 523 mmHg 95%
    21:00 +5°C° 0 mm 0 mps 523 mmHg 94%
    22:00 +4°C° 0 mm 0 mps 523 mmHg 94%
    23:00 +4°C° 0 mm 0 mps 523 mmHg 93%

    23 November, Saturday

    Time Temperature Precipitation Wind Pressure Humidity
    00:00 +4°C° 0 mm 0 mps 523 mmHg 92%
    01:00 +4°C° 0 mm 0 mps 523 mmHg 91%
    02:00 +4°C° 0 mm 0 mps 523 mmHg 90%
    03:00 +4°C° 0 mm 0 mps 523 mmHg 89%
    04:00 +4°C° 0 mm 0 mps 522 mmHg 88%
    05:00 +3°C° 0 mm 0 mps 522 mmHg 87%
    06:00 +4°C° 0 mm 1 mps 522 mmHg 86%
    07:00 +6°C° 0 mm 1 mps 524 mmHg 78%
    08:00 +8°C° 0 mm 1 mps 525 mmHg 70%
    09:00 +10°C° 0 mm 1 mps 527 mmHg 62%
    10:00 +11°C° 0 mm 1 mps 527 mmHg 59%
    11:00 +12°C° 0 mm 2 mps 527 mmHg 57%
    12:00 +13°C° 0 mm 2 mps 527 mmHg 55%
    13:00 +12°C° 0 mm 2 mps 527 mmHg 60%
    14:00 +10°C° 0 mm 2 mps 526 mmHg 65%
    15:00 +10°C° 0 mm 2 mps 525 mmHg 70%
    16:00 +9°C° 0 mm 1 mps 524 mmHg 78%
    17:00 +8°C° 0 mm 1 mps 524 mmHg 87%
    18:00 +5°C° 0 mm 0 mps 523 mmHg 95%
    19:00 +5°C° 0 mm 0 mps 523 mmHg 95%
    20:00 +4°C° 0 mm 0 mps 523 mmHg 95%
    21:00 +4°C° 0 mm 0 mps 523 mmHg 95%
    22:00 +4°C° 0 mm 0 mps 523 mmHg 94%
    23:00 +4°C° 0 mm 0 mps 522 mmHg 93%

    24 November, Sunday

    Time Temperature Precipitation Wind Pressure Humidity
    00:00 +3°C° 0 mm 0 mps 522 mmHg 93%
    01:00 +3°C° 0 mm 0 mps 522 mmHg 91%
    02:00 +3°C° 0 mm 0 mps 522 mmHg 90%
    03:00 +3°C° 0 mm 0 mps 521 mmHg 89%
    04:00 +2°C° 0 mm 0 mps 521 mmHg 87%
    05:00 +2°C° 0 mm 0 mps 521 mmHg 86%
    06:00 +3°C° 0 mm 1 mps 521 mmHg 84%
    07:00 +5°C° 0 mm 1 mps 523 mmHg 76%
    08:00 +8°C° 0 mm 1 mps 525 mmHg 68%
    09:00 +10°C° 0 mm 1 mps 526 mmHg 61%
    10:00 +11°C° 0 mm 1 mps 527 mmHg 57%
    11:00 +12°C° 0 mm 2 mps 527 mmHg 54%
    12:00 +13°C° 0 mm 2 mps 527 mmHg 50%
    13:00 +13°C° 0 mm 2 mps 526 mmHg 56%
    14:00 +12°C° 0 mm 2 mps 526 mmHg 61%
    15:00 +10°C° 0 mm 2 mps 525 mmHg 66%
    16:00 +9°C° 0 mm 1 mps 524 mmHg 76%
    17:00 +7°C° 0 mm 1 mps 523 mmHg 87%
    18:00 +4°C° 0 mm 0 mps 522 mmHg 97%
    19:00 +4°C° 0 mm 0 mps 522 mmHg 95%
    20:00 +4°C° 0 mm 0 mps 523 mmHg 94%
    21:00 +4°C° 0 mm 0 mps 523 mmHg 92%
    22:00 +4°C° 0 mm 0 mps 523 mmHg 91%
    23:00 +3°C° 0 mm 0 mps 522 mmHg 90%

    25 November, Monday

    Time Temperature Precipitation Wind Pressure Humidity
    00:00 +3°C° 0 mm 0 mps 522 mmHg 89%
    01:00 +4°C° 0 mm 1 mps 522 mmHg 86%
    02:00 +3°C° 0 mm 1 mps 521 mmHg 83%
    03:00 +3°C° 0 mm 1 mps 521 mmHg 81%
    04:00 +3°C° 0 mm 1 mps 521 mmHg 79%
    05:00 +3°C° 0 mm 1 mps 521 mmHg 77%
    06:00 +2°C° 0 mm 1 mps 521 mmHg 75%
    07:00 +5°C° 0 mm 1 mps 523 mmHg 67%
    08:00 +7°C° 0 mm 1 mps 525 mmHg 59%
    09:00 +10°C° 0 mm 1 mps 527 mmHg 51%
    10:00 +11°C° 0 mm 1 mps 527 mmHg 47%
    11:00 +12°C° 0 mm 2 mps 528 mmHg 44%
    12:00 +13°C° 0 mm 2 mps 528 mmHg 41%
    13:00 +13°C° 0 mm 2 mps 527 mmHg 47%
    14:00 +12°C° 0 mm 2 mps 526 mmHg 53%
    15:00 +10°C° 0 mm 2 mps 526 mmHg 59%
    16:00 +8°C° 0 mm 2 mps 525 mmHg 71%
    17:00 +7°C° 0 mm 1 mps 524 mmHg 83%
    18:00 +3°C° 0 mm 0 mps 522 mmHg 96%
    19:00 +3°C° 0 mm 0 mps 523 mmHg 94%
    20:00 +3°C° 0 mm 0 mps 523 mmHg 92%
    21:00 +2°C° 0 mm 0 mps 523 mmHg 91%
    22:00 +3°C° 0 mm 1 mps 523 mmHg 87%
    23:00 +3°C° 0 mm 1 mps 523 mmHg 83%
    Show more